Find Starlink 3959

NORAD ID: 52564 Int'l Des: 2022-051 Owner: SPXS Country: US Constellation: starlink operational
LEOCIRCULAR

Live Position

Loading 3D Globe...

About Starlink 3959

Description loading...

Upcoming Passes

Passes for default location (London). Set your location on the main map for personalized predictions.

Altitude History

Loading altitude history...

Two-Line Element Set

1 52564U 22051AH 26105.92094851 -.00000064 00000-0 14088-4 0 9990
2 52564 53.2187 326.9940 0001414 87.3496 272.7658 15.08837543216998
Epoch: Apr 15, 2026 • Age: 8 hours

Current Status

Altitude 545.3 km
Velocity 7.60 km/s
Sub-Earth Point 52.78°N, 125.65°E
Launch Date May 13, 2022
Age 3.9 years
Type internet

Technical Details

Classification Payload
Mass 297.00 kg
Dry Mass 275.00 kg
Total Mass 297.00 kg
Length 0.20 m
Diameter 2.80 m
Span 9.00 m
Shape Box + pan
Manufacturer SPXS
Bus Type Starlink
Phase Status In Orbit
Owner/State SPXS/US

Most Searched